TimeCST,TemperatureF,Dew PointF,Humidity,Sea Level PressureIn,VisibilityMPH,Wind Direction,Wind SpeedMPH,Gust SpeedMPH,PrecipitationIn,Events,Conditions,WindDirDegrees,DateUTC
2:55 AM,55,28,24,29.83,3,Calm,Calm,,,,,,2013-02-20 08:55:00
5:58 AM,48,23,25,29.86,3,Calm,Calm,,,,,,2013-02-20 11:58:00
6:03 AM,39.2,24.8,56,30.26,7.0,NW,6.9,-,N/A,,Clear,310,2013-02-20 12:03:00
6:40 AM,39.2,23.0,52,30.32,8.0,WNW,3.5,-,N/A,,Clear,300,2013-02-20 12:40:00
7:40 AM,42.8,26.6,53,30.34,8.0,NNW,6.9,-,N/A,,Clear,340,2013-02-20 13:40:00
8:40 AM,51.8,28.4,41,30.36,8.0,NNW,5.8,-,N/A,,Clear,330,2013-02-20 14:40:00
8:50 AM,59,34,27,30.02,3,Calm,Calm,,,,Haze,,2013-02-20 14:50:00
9:42 AM,64.4,23.0,21,30.36,8.0,NE,4.6,-,N/A,,Clear,40,2013-02-20 15:42:00
10:40 AM,69.8,23.0,17,30.34,8.0,South,5.8,-,N/A,,Clear,180,2013-02-20 16:40:00
11:42 AM,71.6,17.6,13,30.31,9.0,South,12.7,-,N/A,,Partly Cloudy,170,2013-02-20 17:42:00
11:50 AM,73,31,12,29.91,3,ESE,4.5,,,,Haze,120,2013-02-20 17:50:00
12:40 PM,73.4,19.4,13,30.27,10.0,SSE,15.0,-,N/A,,Partly Cloudy,160,2013-02-20 18:40:00
1:41 PM,75.2,21.2,13,30.23,10.0,SSE,11.5,23.0,N/A,,Scattered Clouds,160,2013-02-20 19:41:00
2:40 PM,75.2,19.4,12,30.20,11.0,South,11.5,-,N/A,,Scattered Clouds,180,2013-02-20 20:40:00
2:50 PM,79,29,8,29.72,9,South,8.9,,,,Haze,180,2013-02-20 20:50:00
3:40 PM,77.0,19.4,12,30.18,11.0,South,11.5,-,N/A,,Mostly Cloudy,180,2013-02-20 21:40:00
4:40 PM,75.2,17.6,11,30.16,11.0,South,18.4,-,N/A,,Scattered Clouds,190,2013-02-20 22:40:00
5:40 PM,71.6,19.4,14,30.17,11.0,SSW,15.0,-,N/A,,Partly Cloudy,200,2013-02-20 23:40:00
5:50 PM,77,26,7,29.59,9,South,8.9,,,,Haze,180,2013-02-20 23:50:00
6:42 PM,66.2,17.6,15,30.18,10.0,SSW,12.7,-,N/A,,Partly Cloudy,200,2013-02-21 00:42:00
7:42 PM,57.2,21.2,25,30.20,10.0,SSE,11.5,-,N/A,,Partly Cloudy,160,2013-02-21 01:42:00
8:40 PM,59.0,17.6,20,30.22,10.0,SSW,9.2,-,N/A,,Clear,200,2013-02-21 02:40:00
8:45 PM,64,,,29.58,3,East,2.2,,,,,90,2013-02-21 02:45:00
9:46 PM,57.2,17.6,21,30.22,10.0,WSW,4.6,-,N/A,,Clear,240,2013-02-21 03:46:00
10:40 PM,51.8,19.4,28,30.23,10.0,WNW,3.5,-,N/A,,Partly Cloudy,290,2013-02-21 04:40:00
11:41 PM,50.0,19.4,30,30.24,9.0,WNW,4.6,-,N/A,,Partly Cloudy,300,2013-02-21 05:41:00
11:45 PM,58,23,15,29.64,3,NE,2.2,,,,,40,2013-02-21 05:45:00